Regional Weather Roundup
Issued by NWS Little Rock, AR

Home | Current Version | Previous Version | Graphics & Text | Print | Product List | Glossary On
Versions: 1 2 3 4 5 6 7 8 9 10 11 12 13 14 15 16 17 18 19 20 21 22 23 24 25 26 27 28 29 30 31 32
000
ASUS44 KLZK 171812
RWRLZK

WEATHER ROUNDUP FOR ARKANSAS
NATIONAL WEATHER SERVICE LITTLE ROCK AR
1200 PM CST SUN DEC 17 2017

NOTE: "FAIR" INDICATES FEW OR NO CLOUDS BELOW 12,000 FEET WITH NO
SIGNIFICANT WEATHER AND/OR OBSTRUCTIONS TO VISIBILITY.

ARZ001-003-010-029-171900-
NORTHWEST ARKANSAS

CITY           SKY/WX    TMP DP  RH WIND       PRES   REMARKS
FAYETTEVILLE   CLOUDY    47  47 100 SW6       30.06F FOG
6HR MIN TEMP:  43; 6HR MAX TEMP:  47;

FORT SMITH     CLOUDY    49  47  93 NE6       30.07F
6HR MIN TEMP:  45; 6HR MAX TEMP:  49; 6HR PCP:  0.01;

HARRISON       CLOUDY    46  46 100 CALM      30.06F FOG
6HR MIN TEMP:  41; 6HR MAX TEMP:  46; 6HR PCP: TRACE;

BENTONVILLE    CLOUDY    45  43  93 SW8       30.07F
6HR MIN TEMP:  42; 6HR MAX TEMP:  45; 6HR PCP: TRACE;

ROGERS         CLOUDY    45  44  97 SW8       30.06F
6HR MIN TEMP:  42; 6HR MAX TEMP:  45;

SILOAM SPGS    CLOUDY    45  44  97 SW7       30.07F
6HR MIN TEMP:  42; 6HR MAX TEMP:  45; 6HR PCP: TRACE;

HIGHFILL       CLOUDY    45  45 100 SW6       30.05F FOG
6HR MIN TEMP:  42; 6HR MAX TEMP:  45; 6HR PCP:  0.01;

SPRINGDALE     CLOUDY    46  46 100 SW7       30.07F FOG
$$

ARZ004-005-016-171900-
NORTH CENTRAL ARKANSAS

CITY           SKY/WX    TMP DP  RH WIND       PRES   REMARKS
BATESVILLE     CLOUDY    45  43  93 S3        30.10F
6HR MIN TEMP:  42; 6HR MAX TEMP:  45;

FLIPPIN        CLOUDY    47  45  93 CALM      30.08F
6HR MIN TEMP:  42; 6HR MAX TEMP:  47; 6HR PCP:  0.06;

MTN HOME       CLOUDY    46  46 100 CALM      30.07F
6HR MIN TEMP:  41; 6HR MAX TEMP:  46; 6HR PCP:  0.05;

$$

ARZ040-041-171900-
WEST CENTRAL ARKANSAS

CITY           SKY/WX    TMP DP  RH WIND       PRES   REMARKS
MENA           CLOUDY    50  48  93 CALM      30.07F
MOUNT IDA      CLOUDY    47  46  97 VRB3      30.06F FOG
6HR MIN TEMP:  44; 6HR MAX TEMP:  47;

$$

ARZ009-017-025-026-028-171900-
NORTHEAST ARKANSAS

CITY           SKY/WX    TMP DP  RH WIND       PRES   REMARKS
JONESBORO      CLOUDY    47  43  86 W3        30.11F
6HR MIN TEMP:  42; 6HR MAX TEMP:  48; 6HR PCP:  0.02;

NEWPORT        CLOUDY    45  43  93 W5        30.12F
6HR MIN TEMP:  41; 6HR MAX TEMP:  45; 6HR PCP:  0.01;

WALNUT RIDGE   CLOUDY    46  42  86 S5        30.11F
6HR MIN TEMP:  41; 6HR MAX TEMP:  46; 6HR PCP:  0.01;

BLYTHEVILLE    CLOUDY    47  47 100 S6        30.12S
6HR MIN TEMP:  42; 6HR MAX TEMP:  48;

$$

ARZ022-023-033-042-044-171900-
CENTRAL ARKANSAS

CITY           SKY/WX    TMP DP  RH WIND       PRES   REMARKS
LITTLE ROCK    CLOUDY    44  44 100 W3        30.12F
6HR MIN TEMP:  42; 6HR MAX TEMP:  45;

N LITTLE ROCK    N/A     44  43  95 CALM      30.14F
6HR MIN TEMP:  42; 6HR MAX TEMP:  44;

JACKSONVILLE   CLOUDY    45  45  99 CALM      30.10F
6HR MIN TEMP:  43; 6HR MAX TEMP:  45;

SEARCY         CLOUDY    45  45 100 VRB3      30.10F
6HR MIN TEMP:  43; 6HR MAX TEMP:  45;

HOT SPRINGS    CLOUDY    46  45  96 CALM      30.10F
6HR MIN TEMP:  44; 6HR MAX TEMP:  46;

RUSSELLVILLE   CLOUDY    48  46  93 SE3       30.09S
6HR MIN TEMP:  43; 6HR MAX TEMP:  48; 6HR PCP:  0.01;

CLINTON        CLOUDY    46  43  87 CALM      30.09F
$$

ARZ036-171900-
EAST ARKANSAS

CITY           SKY/WX    TMP DP  RH WIND       PRES   REMARKS
WEST MEMPHIS   CLOUDY    46  45  96 SW5       30.11S
6HR MIN TEMP:  41; 6HR MAX TEMP:  46; 6HR PCP:  0.01;

$$

ARZ050-053-066-070-073-171900-
SOUTHWEST ARKANSAS

CITY           SKY/WX    TMP DP  RH WIND       PRES   REMARKS
ARKADELPHIA    CLOUDY    45  44  97 CALM      30.12F
6HR MIN TEMP:  43; 6HR MAX TEMP:  45;

CAMDEN         CLOUDY    46  43  87 CALM      30.11F
TEXARKANA      FOG       45  45 100 NE5       30.10F VSB 1/2
6HR MIN TEMP:  43; 6HR MAX TEMP:  45;

EL DORADO      CLOUDY    45  45 100 E5        30.09F FOG
6HR MIN TEMP:  43; 6HR MAX TEMP:  45;

DE QUEEN       CLOUDY    48  47  96 CALM      30.09F FOG
6HR MIN TEMP:  44; 6HR MAX TEMP:  48;

$$

ARZ056-057-069-171900-
SOUTHEAST ARKANSAS

CITY           SKY/WX    TMP DP  RH WIND       PRES   REMARKS
PINE BLUFF     CLOUDY    44  42  93 CALM      30.13S
6HR MIN TEMP:  41; 6HR MAX TEMP:  44;

STUTTGART      CLOUDY    44  42  93 N3        30.11F
6HR MIN TEMP:  42; 6HR MAX TEMP:  44;

MONTICELLO     CLOUDY    46  44  93 NW3       30.11F FOG
6HR MIN TEMP:  42; 6HR MAX TEMP:  46;


$$






USA.gov is the U.S. government's official web portal to all federal, state and local government web resources and services.